Location: Newark
(42.2947°N, 5.1925°W)
Time: 19:44:09
(UTC+00:00)

STARLINK 1039 - Pass Details

Date: 20 December 2019
Orbit: 548 x 551 km, 53.0° (Epoch: 17 January)

Event Time Altitude Azimuth Distance (km) Brightness Sun altitude
Rises 18:11:14 0° 183° (S) 2,703 7.5 -14.3°
Reaches altitude 10° 18:14:21 10° 158° (SSE) 1,822 6.2 -14.8°
Maximum altitude 18:16:31 14° 126° (SE) 1,589 5.6 -15.2°
Enters shadow 18:16:43 14° 123° (ESE) 1,592 5.6 -15.2°
